Vertical_Velocity
-3 0 0 0 3 1 4 3 0 4 2 2 2 1 1 2 2 -2 10 1 -4 -12 5 3 2 3 0 3 10 8 10 6 2 4 5 -4 -0 -5 1 -0 0 -3 -4 3 2 -3 -14 6 -3 -7 1 6 -1 -1
-6 -4 -1 -1 0 -2 0 2 3 3 4 -1 -1 -1 1 1 1 2 4 4 -2 -13 15 1 5 1 9 8 -7 3 6 0 32 12 3 7 7 -1 5 -0 -3 2 -1 5 -4 5 -6 -3 -5 -3 0 0 -4 -1
-1 -1 -1 -1 0 0 1 -0 1 -0 -0 -2 -1 -1 0 1 -3 -3 6 -1 -6 -9 3 -1 13 14 -9 8 -12 -6 11 17 11 15 12 11 1 1 -1 -1 -1 0 1 -6 -12 16 2 -4 0 5 1 8 9 13
1 0 -1 -1 3 5 3 0 -3 -4 0 4 2 2 2 -0 -1 -2 6 4 -8 -6 -8 18 4 -3 -3 -0 -1 6 5 2 -4 8 8 4 2 -0 3 -3 -2 5 4 1 -7 10 -4 6 -0 -5 -2 1 -1 4
2 2 2 6 3 -1 -3 6 4 2 -0 1 2 1 -2 3 1 1 5 1 -5 -9 7 6 1 -5 -2 -1 -1 -4 7 6 -1 7 5 3 0 -4 0 2 12 2 6 -8 -1 1 -7 9 -3 -1 -2 -2 -2 1
5 4 2 13 19 2 -6 13 0 8 -6 -1 1 0 -2 5 3 0 -0 -1 -0 -3 8 -4 4 2 1 -0 2 -1 2 0 1 0 2 3 5 -8 -7 -2 20 -2 -2 -10 -1 -9 -5 7 -1 -4 -3 -5 -2 -2
-4 -0 1 0 10 -3 -4 22 3 -3 -6 -3 -1 -2 0 0 -2 -0 -1 2 -2 -4 5 -0 1 -1 10 9 -0 10 6 13 6 0 2 4 1 -6 -4 14 -10 -11 -11 -10 -3 -3 0 -8 5 -2 -3 -3 -1 -5
-3 -2 -1 -2 7 -2 7 12 -2 -6 1 -5 -3 -4 2 -1 -2 -2 8 5 5 4 -1 -5 -1 3 5 5 4 21 17 4 -0 0 7 0 -3 -6 -5 -9 -4 -5 -4 1 -5 -6 3 -0 0 -1 -2 -3 -2 -2
-4 -2 -6 -2 -0 -3 3 1 -3 1 -5 -7 -1 2 -1 0 2 4 2 2 -4 -8 -3 7 6 10 10 6 5 -1 -0 -0 -1 5 -2 -7 1 2 -10 -3 2 1 3 3 -0 9 7 2 -0 -0 -2 -5 -3 -3
1 -9 -7 -5 -3 -4 -5 -2 -3 -7 -6 -1 -1 0 -0 -4 3 2 3 -1 -3 2 5 5 4 6 6 -0 -1 1 -1 -1 2 2 -7 -3 10 -6 -0 -4 -4 -5 -4 -2 2 5 -2 4 -1 -4 -1 -3 -2 -2
-3 1 -11 -12 -10 -6 -6 -7 -6 -6 -7 -4 -2 -2 2 2 -1 1 -1 6 4 3 3 3 2 -7 5 2 0 1 2 -4 2 3 -9 0 2 1 -3 1 0 -1 -2 0 2 0 -0 1 1 -1 -0 -0 -0 -1
-1 -2 0 -1 -5 -8 -10 -9 -5 -3 -2 1 5 6 11 13 8 5 9 5 6 8 3 2 1 -0 0 -1 -1 1 -2 1 -2 -2 -4 6 -5 2 1 -1 5 2 1 0 -2 0 1 1 2 1 -1 -1 0 0
-0 1 -0 -4 -3 5 1 -2 -1 -5 -4 2 3 -4 4 5 12 16 6 1 2 3 3 1 -1 -3 -1 0 1 -2 -1 -1 -4 -2 -2 -3 -3 4 5 74 10 1 3 4 2 1 -0 1 0 -1 -1 -0 0 1
4 1 2 1 -1 -6 -1 -1 0 -1 -5 -3 -2 -0 4 16 2 1 -1 -1 1 1 0 -0 -1 -1 -1 -1 0 0 -3 -3 -3 -3 -3 -0 -2 0 5 4 4 6 2 3 3 1 -0 -0 1 1 -0 -1 0 -1
1 2 3 1 1 1 -1 -5 -1 2 -1 -3 -1 -1 9 2 2 5 4 2 0 1 1 -0 -1 -1 -2 -1 -2 -2 -3 -3 3 3 9 -1 -2 -1 -1 -1 -1 -1 -1 -0 -0 -1 -2 -2 -1 -1 -1 1 0 0
1 1 2 -1 2 3 2 3 2 1 -1 -1 1 1 1 1 1 1 0 -0 -1 -2 -1 -0 -2 -1 -1 -2 -1 -2 -1 4 3 -3 -2 -1 -1 -2 -1 -1 1 1 -0 -0 -1 -1 -0 -0 -0 0 1 -1 -0 -1
-1 -2 0 1 2 1 1 0 -0 -0 1 1 -0 -0 -1 -2 -3 -2 -3 -2 -2 -1 -1 -1 0 -2 0 -2 -1 1 1 -2 2 2 2 1 -1 -1 -2 -1 -0 -1 -0 -0 -1 -0 -0 -1 -1 -1 -1 -0 -0 -1
-4 -2 -3 -2 -1 1 0 -1 -0 -1 -3 -4 -3 -3 -2 -0 -1 -1 -1 -2 -3 -3 -4 -2 -2 -2 -0 -1 1 -1 4 8 3 4 3 1 -0 -0 -0 -1 -1 -1 -1 -1 1 0 0 -1 -1 -1 -0 -0 -1 -0
-3 -2 -1 1 -1 -3 -2 -1 -0 -0 1 1 2 1 -2 -2 -3 -3 -3 -2 -1 -2 -2 -0 -3 4 2 -2 -2 14 17 1 -0 2 1 1 1 2 2 2 2 2 -0 -0 0 0 -0 -1 -1 -0 0 -1 -1 -1
-1 -0 -1 -1 -1 -1 -1 0 0 1 1 -0 -1 -1 0 0 0 -1 -1 -0 -1 -2 -1 3 2 -4 -2 -1 -1 -1 -2 0 1 3 3 0 0 0 0 1 1 -1 -1 -1 -0 -0 0 -1 1 1 1 1 -0 1
-0 -1 -1 -1 -1 -0 -0 -1 -1 -0 -1 -1 -1 -0 -0 -0 0 -0 0 0 -1 1 1 -0 -0 -1 -0 -1 -2 -1 -1 -1 -0 -0 1 -1 1 4 -1 -1 -0 0 0 0 -0 -0 1 1 1 1 1 0 -1 -1
-0 -0 -1 -1 -1 -0 -0 -1 -1 -1 -2 -1 -2 -0 -0 -0 -0 0 1 1 1 1 1 -0 0 -0 -0 0 2 1 -1 -3 -2 -1 -1 -0 -1 1 2 0 -0 -0 0 1 0 -0 0 1 1 1 1 -0 0 1
1 2 1 0 -0 -0 -1 -1 0 1 -0 0 0 0 1 -0 1 0 -1 2 -1 -1 -1 1 0 1 0 0 0 -1 -0 -1 -2 -0 -0 -1 -0 2 1 0 1 1 1 1 1 0 -1 -1 0 -1 0 1 0 1
1 0 -0 -1 -0 -0 -0 -1 0 0 0 -0 1 -0 1 0 -0 -3 -2 1 1 -1 -1 -0 1 1 1 -0 -1 -1 0 0 -1 -1 0 2 0 1 2 0 2 2 1 0 -0 -1 -1 -1 -0 1 1 0 1 0
0 -0 1 -0 -1 1 1 0 0 -0 -0 -1 0 -0 0 0 1 2 1 -0 -1 -2 -1 -0 1 -0 -1 -1 -0 -1 -0 -1 -0 1 -3 -0 -0 2 3 2 1 1 0 1 1 0 -1 -2 -2 -1 -0 1 2 3
-2 -0 -1 1 2 1 -1 1 3 4 3 2 1 -0 -1 -0 -0 -3 1 -1 -0 2 2 1 -0 -1 -1 2 2 -2 -3 1 1 2 -3 1 1 1 1 2 2 1 2 1 1 0 -0 0 0 -1 -1 1 3 3
2 -0 -2 1 1 -1 0 0 -2 -0 2 3 2 1 1 0 0 1 -2 -1 0 2 1 1 0 0 1 -0 -1 0 1 -1 -1 1 0 0 1 0 -0 0 1 1 -0 2 1 1 1 0 0 1 2 2 3 3
1 2 2 2 0 2 1 0 -1 -1 1 3 4 2 2 1 1 -1 -1 -2 -3 -0 2 2 1 1 1 1 1 1 0 -1 -0 1 1 1 1 0 -0 0 2 3 3 2 2 2 2 1 0 0 1 3 6 7
-1 -1 0 1 1 1 1 0 -0 -0 -0 -0 4 4 2 3 2 1 1 -0 1 1 0 -1 -1 -0 0 0 -1 -0 1 1 0 -1 -1 -0 -0 0 1 2 1 2 2 2 2 1 1 2 1 1 1 1 2 2
2 -1 -0 -1 -2 -1 -1 1 -0 -0 2 1 2 3 -1 2 3 2 1 1 0 -1 -0 0 0 -1 -1 -0 -1 -2 0 2 1 1 1 -1 1 1 -0 1 3 3 3 3 3 4 5 3 3 2 3 5 4 2
-2 1 1 1 -0 -1 -1 -2 -1 0 1 1 1 2 2 2 -1 2 2 1 1 1 1 -1 -1 1 0 -0 2 3 -2 0 0 0 1 1 1 1 1 1 2 2 2 5 5 4 4 3 3 3 2 3 3 3
-5 -3 -2 -1 -0 -2 -1 -0 -2 -3 -0 -1 -1 0 1 2 2 3 1 1 1 -0 -1 1 2 -1 -1 -0 -0 1 2 1 1 1 0 1 2 2 1 1 1 3 3 2 3 4 4 4 3 2 2 2 2 1
-2 -2 -1 -1 1 1 4 4 2 2 1 -0 -1 2 3 3 1 1 1 0 -1 -1 -1 -1 -2 -1 -0 0 -1 -0 0 1 2 2 1 1 2 2 2 0 1 2 2 2 1 1 1 2 2 2 2 1 1 1
Height
5445 5442 5441 5439 5437 5435 5435 5434 5435 5435 5435 5435 5436 5438 5440 5441 5443 5447 5453 5453 5457 5462 5466 5470 5473 5477 5481 5485 5491 5497 5502 5507 5510 5512 5513 5516 5518 5519 5521 5521 5521 5522 5523 5523 5523 5523 5524 5524 5525 5523 5522 5522 5522 5523
5430 5427 5424 5421 5419 5418 5417 5418 5419 5421 5422 5422 5422 5424 5425 5426 5427 5431 5437 5441 5446 5449 5457 5461 5465 5470 5473 5476 5480 5485 5493 5498 5503 5505 5507 5509 5511 5513 5514 5514 5513 5515 5515 5515 5515 5516 5514 5515 5516 5514 5513 5515 5516 5518
5422 5418 5414 5411 5408 5407 5406 5407 5408 5409 5410 5411 5412 5414 5415 5416 5417 5419 5421 5426 5434 5442 5446 5452 5460 5462 5463 5468 5471 5479 5486 5490 5494 5499 5501 5503 5505 5506 5507 5507 5506 5505 5504 5504 5504 5506 5505 5504 5506 5507 5508 5509 5511 5512
5411 5404 5399 5396 5395 5396 5396 5397 5398 5398 5399 5400 5402 5404 5406 5407 5407 5409 5412 5414 5423 5434 5437 5448 5451 5454 5457 5461 5465 5471 5478 5483 5486 5491 5494 5497 5500 5500 5501 5501 5499 5499 5497 5496 5495 5497 5497 5498 5499 5500 5502 5504 5505 5506
5395 5386 5381 5379 5379 5382 5383 5385 5387 5389 5390 5391 5393 5396 5398 5400 5402 5404 5406 5408 5415 5426 5432 5443 5445 5449 5452 5456 5460 5467 5473 5478 5483 5486 5489 5493 5494 5494 5494 5494 5493 5492 5491 5488 5489 5490 5490 5494 5494 5496 5498 5499 5501 5502
5379 5365 5356 5358 5361 5365 5370 5374 5377 5381 5383 5385 5387 5390 5392 5395 5397 5399 5401 5404 5410 5420 5428 5437 5442 5446 5450 5454 5459 5466 5470 5475 5479 5481 5485 5487 5488 5488 5488 5488 5487 5485 5482 5480 5482 5482 5482 5487 5488 5490 5492 5494 5496 5498
5361 5343 5333 5330 5340 5350 5358 5366 5369 5375 5378 5380 5382 5386 5389 5392 5395 5397 5400 5401 5406 5417 5426 5434 5439 5443 5448 5452 5457 5464 5468 5472 5476 5479 5481 5482 5481 5480 5481 5481 5479 5475 5473 5471 5472 5474 5478 5480 5482 5483 5486 5488 5491 5493
5352 5333 5324 5320 5330 5343 5352 5360 5365 5371 5374 5377 5381 5385 5388 5390 5392 5395 5399 5401 5408 5418 5426 5431 5437 5442 5446 5450 5454 5460 5465 5469 5473 5475 5476 5476 5475 5473 5473 5472 5469 5467 5464 5463 5464 5467 5473 5474 5476 5477 5479 5482 5485 5487
5357 5339 5329 5328 5335 5343 5352 5359 5364 5369 5372 5377 5381 5384 5386 5388 5391 5396 5399 5406 5413 5420 5424 5430 5435 5442 5446 5451 5455 5459 5463 5467 5470 5471 5470 5470 5469 5466 5462 5460 5458 5458 5455 5457 5458 5466 5469 5469 5469 5470 5472 5475 5477 5479
5375 5360 5347 5343 5345 5350 5356 5362 5366 5370 5375 5379 5382 5385 5388 5391 5396 5401 5407 5412 5417 5422 5427 5432 5436 5442 5447 5450 5454 5459 5462 5464 5466 5467 5466 5464 5462 5458 5454 5452 5450 5449 5450 5452 5457 5461 5461 5464 5464 5465 5467 5469 5471 5473
5395 5384 5374 5368 5364 5364 5367 5369 5372 5376 5380 5384 5389 5393 5398 5402 5407 5411 5414 5418 5422 5426 5430 5435 5440 5443 5447 5451 5454 5457 5459 5461 5461 5461 5459 5457 5456 5454 5450 5448 5446 5445 5447 5450 5453 5455 5457 5458 5459 5460 5461 5463 5465 5466
5410 5403 5395 5388 5386 5386 5385 5386 5389 5391 5394 5397 5400 5404 5408 5412 5415 5417 5420 5424 5426 5430 5434 5438 5441 5444 5448 5450 5453 5455 5456 5456 5455 5454 5453 5452 5451 5449 5447 5444 5444 5445 5446 5448 5449 5451 5452 5453 5455 5456 5457 5458 5459 5459
5420 5416 5411 5407 5402 5401 5402 5403 5404 5406 5408 5409 5411 5413 5417 5421 5422 5424 5426 5428 5430 5432 5436 5439 5443 5445 5447 5449 5451 5451 5451 5450 5449 5448 5448 5448 5447 5446 5444 5441 5444 5445 5446 5446 5447 5448 5448 5450 5451 5452 5452 5453 5452 5452
5427 5425 5422 5419 5418 5415 5414 5414 5416 5417 5418 5419 5420 5422 5423 5426 5428 5429 5431 5432 5434 5436 5438 5440 5443 5445 5446 5446 5447 5448 5447 5446 5444 5442 5442 5443 5444 5443 5441 5441 5443 5443 5444 5445 5445 5445 5445 5446 5447 5447 5447 5447 5446 5445
5431 5430 5429 5428 5426 5425 5424 5424 5424 5425 5424 5425 5426 5427 5429 5430 5431 5432 5433 5434 5436 5437 5439 5441 5442 5444 5444 5444 5444 5444 5443 5443 5441 5440 5439 5438 5440 5440 5440 5440 5441 5441 5441 5441 5441 5441 5442 5442 5442 5442 5441 5441 5440 5439
5433 5433 5432 5431 5431 5430 5429 5429 5429 5429 5429 5429 5429 5430 5430 5431 5431 5432 5434 5435 5436 5437 5438 5439 5440 5440 5440 5439 5440 5439 5440 5439 5438 5437 5435 5436 5437 5437 5437 5437 5437 5437 5437 5438 5437 5437 5437 5436 5436 5436 5436 5435 5434 5433
5435 5434 5433 5433 5432 5432 5432 5431 5431 5431 5431 5430 5430 5430 5430 5431 5431 5432 5433 5433 5434 5434 5435 5434 5435 5434 5434 5434 5436 5436 5436 5435 5435 5434 5433 5432 5432 5432 5432 5432 5433 5433 5433 5433 5432 5431 5431 5430 5430 5429 5429 5428 5428 5427
5434 5433 5432 5431 5431 5430 5430 5430 5430 5429 5429 5429 5428 5427 5427 5427 5428 5428 5428 5428 5428 5427 5427 5428 5428 5428 5429 5430 5431 5431 5431 5431 5431 5430 5430 5429 5428 5427 5427 5427 5427 5427 5427 5427 5427 5426 5425 5424 5424 5423 5423 5422 5422 5421
5433 5431 5429 5426 5426 5427 5427 5427 5426 5426 5425 5424 5424 5424 5423 5423 5423 5422 5422 5422 5421 5421 5421 5421 5421 5423 5424 5424 5424 5425 5425 5425 5426 5426 5425 5424 5423 5422 5422 5421 5421 5421 5421 5421 5420 5420 5419 5419 5418 5418 5417 5417 5416 5416
5431 5429 5428 5426 5424 5423 5423 5422 5422 5421 5421 5420 5419 5419 5418 5418 5418 5417 5417 5416 5416 5415 5415 5415 5416 5415 5416 5417 5417 5417 5419 5419 5419 5420 5419 5419 5418 5417 5416 5415 5415 5415 5415 5415 5414 5414 5414 5413 5413 5412 5412 5412 5412 5411
5429 5428 5426 5424 5423 5421 5421 5420 5419 5418 5417 5416 5415 5415 5414 5414 5414 5413 5412 5411 5410 5411 5410 5410 5409 5409 5409 5409 5409 5410 5411 5412 5412 5413 5413 5412 5412 5412 5410 5410 5410 5409 5409 5409 5409 5408 5408 5407 5407 5407 5407 5407 5407 5406
5430 5428 5425 5423 5421 5419 5417 5415 5414 5413 5412 5411 5410 5409 5408 5408 5407 5407 5406 5405 5404 5404 5403 5403 5402 5402 5401 5401 5402 5402 5403 5404 5404 5405 5405 5405 5405 5405 5405 5405 5404 5404 5403 5403 5402 5402 5402 5402 5401 5401 5401 5401 5401 5401
5432 5429 5426 5423 5420 5417 5416 5412 5410 5408 5406 5405 5403 5402 5401 5400 5399 5398 5397 5397 5396 5396 5395 5395 5394 5393 5393 5393 5392 5393 5393 5394 5394 5395 5395 5395 5396 5396 5397 5397 5398 5397 5397 5397 5397 5396 5396 5396 5396 5395 5395 5395 5395 5395
5434 5430 5426 5423 5420 5417 5413 5410 5407 5404 5402 5399 5396 5394 5392 5390 5389 5387 5386 5385 5384 5383 5383 5383 5384 5383 5383 5382 5382 5382 5382 5383 5383 5383 5384 5385 5386 5387 5387 5388 5389 5389 5389 5389 5389 5389 5390 5389 5389 5388 5388 5387 5387 5387
5435 5432 5428 5423 5419 5415 5411 5408 5404 5401 5398 5395 5391 5388 5385 5382 5380 5377 5375 5374 5372 5370 5370 5369 5369 5369 5369 5369 5369 5369 5370 5371 5371 5372 5372 5374 5375 5375 5376 5377 5377 5378 5379 5380 5380 5380 5381 5381 5380 5380 5379 5378 5378 5377
5434 5430 5426 5421 5418 5413 5409 5405 5401 5397 5393 5389 5386 5383 5379 5376 5372 5369 5366 5363 5360 5359 5358 5356 5355 5354 5354 5354 5354 5354 5355 5356 5357 5358 5359 5360 5361 5362 5363 5365 5365 5366 5367 5368 5369 5369 5369 5370 5369 5369 5369 5369 5368 5368
5431 5427 5422 5418 5413 5409 5405 5401 5396 5391 5386 5383 5379 5375 5371 5368 5365 5362 5357 5354 5352 5349 5346 5343 5342 5340 5340 5339 5338 5338 5339 5339 5340 5342 5343 5344 5346 5347 5348 5350 5352 5353 5354 5355 5356 5356 5357 5357 5357 5357 5357 5357 5357 5356
5427 5422 5418 5413 5408 5404 5399 5395 5390 5386 5381 5376 5372 5368 5364 5359 5357 5352 5348 5345 5341 5338 5335 5331 5329 5327 5326 5325 5324 5324 5324 5324 5325 5325 5326 5327 5328 5330 5332 5334 5336 5338 5339 5341 5342 5343 5343 5343 5344 5344 5345 5345 5345 5345
5421 5417 5413 5408 5403 5398 5393 5388 5383 5378 5373 5369 5364 5359 5355 5350 5347 5343 5340 5336 5333 5328 5324 5320 5317 5314 5312 5310 5310 5309 5309 5309 5310 5311 5311 5313 5313 5314 5316 5318 5320 5322 5324 5326 5327 5329 5330 5331 5332 5332 5333 5334 5334 5333
5416 5411 5406 5401 5396 5391 5386 5380 5375 5370 5364 5360 5355 5351 5345 5341 5337 5333 5330 5326 5322 5318 5314 5310 5306 5303 5300 5298 5296 5295 5295 5295 5296 5297 5298 5299 5300 5301 5302 5303 5305 5307 5309 5312 5314 5316 5317 5318 5319 5320 5321 5322 5322 5322
5407 5402 5398 5393 5387 5382 5376 5370 5364 5359 5355 5350 5345 5341 5336 5332 5327 5322 5319 5315 5312 5308 5303 5299 5295 5292 5289 5286 5285 5283 5281 5281 5282 5283 5285 5287 5288 5289 5290 5290 5292 5294 5297 5299 5301 5303 5305 5306 5307 5308 5309 5310 5310 5310
5400 5395 5389 5384 5378 5372 5365 5359 5353 5348 5343 5338 5334 5329 5325 5320 5316 5312 5308 5304 5300 5297 5294 5290 5285 5281 5278 5276 5273 5271 5270 5269 5270 5272 5274 5275 5278 5279 5279 5280 5281 5283 5286 5288 5290 5292 5294 5295 5296 5297 5298 5298 5298 5298
5390 5383 5377 5372 5366 5361 5355 5350 5343 5337 5332 5327 5322 5318 5313 5309 5305 5301 5297 5293 5290 5287 5283 5279 5275 5272 5268 5265 5262 5260 5259 5259 5260 5262 5264 5267 5269 5270 5271 5271 5272 5273 5276 5278 5280 5282 5284 5285 5286 5287 5287 5287 5287 5287